SCP
0 0 0 0 0 0 0 0 0 0 0 0 0 0 0 0 0 0 0 0 0 0
0 0 0 0 0 0 0 0 0 0 0 0 0 0 0 0 0 0 0 0 0 0
0 0 0 0 0 0 0 0 0 0 0 0 0 0 0 0 0 0 0 0 0 0
0 0 0 0 0 0 0 0 0 0 0 0 0 0 0 0 0 0 0 0 0 0
0 0 0 0 0 0 0 0 0 0 0 0 0 0 0 0 0 0 0 0 0 0
0 0 0 0 0 0 0 0 0 0 0 0 0 0 0 0 0 0 0 0 0 0
0 0 0 0 0 0 0 0 0 0 0 0 0 0 0 0 0 0 0 0 0 0
0 0 0 0 0 0 0 0 0 0 0 0 0 0 0 0 0 0 0 0 0 0
0 0 0 0 0 0 0 0 0 0 0 0 0 0 0 0 0 0 0 0 0 0
0 0 0 0 0 0 0 0 0 0 0 0 0 0 0 0 0 0 0 0 0 0
0 0 0 0 0 0 0 0 0 0 0 0 0 0 0 0 0 0 0 0 0 0
0 0 0 0 0 0 0 0 0 0 0 0 0 0 0 0 0 0 0 0 0 0
0 0 0 0 0 0 0 0 0 0 0 0 0 0 0 0 0 0 0 0 0 0
0 0 0 0 0 0 0 0 0 0 0 0 0 0 0 0 0 0 0 0 0 0
Wind_Speed_500mb
56 67 78 85 91 100 103 102 103 103 105 105 107 114 122 123 122 126 130 132 128 130
43 54 70 80 86 94 101 106 105 107 107 109 110 111 112 122 117 116 117 123 132 135
48 48 57 66 75 86 94 101 104 107 111 108 110 110 112 117 121 126 125 122 117 123
48 53 54 59 70 79 86 97 104 106 109 112 112 115 113 116 118 120 128 124 121 121
58 54 57 64 73 76 81 87 98 104 108 114 121 120 118 114 117 117 122 131 126 122
58 63 65 68 69 72 78 85 90 97 108 112 117 121 125 122 115 120 127 119 130 130
60 57 65 72 77 78 76 80 81 89 97 108 111 114 119 122 124 119 127 126 123 131
67 65 61 65 73 81 86 89 89 89 96 102 109 116 116 120 125 118 117 125 123 131
68 67 67 67 70 75 81 85 88 94 93 99 107 113 114 111 113 118 121 122 123 134
71 71 72 74 74 74 77 80 82 84 86 92 97 104 109 108 108 116 114 124 126 132
71 75 75 74 74 75 74 76 80 82 83 84 91 92 97 101 101 106 115 110 124 127
68 72 76 78 76 76 76 75 76 78 78 72 77 79 86 86 90 96 104 105 118 135
67 69 71 73 74 75 72 75 72 73 68 66 72 72 76 80 82 87 87 91 101 118
65 66 67 69 70 70 69 70 68 68 62 57 59 65 69 72 73 80 86 97 106 108
Wind_Direction_500mb
271 271 271 272 273 270 271 272 273 272 270 264 257 256 253 250 249 249 249 247 244 246
279 268 268 272 275 275 274 271 271 272 270 268 263 253 254 249 244 243 244 245 246 246
287 276 275 271 272 273 275 274 271 269 269 269 266 264 253 250 249 246 245 243 242 242
289 284 279 272 273 273 276 275 271 269 268 267 268 267 262 257 250 247 246 245 242 241
290 285 282 278 277 274 275 278 278 274 267 265 265 265 264 260 251 247 247 247 243 244
299 287 282 279 279 280 280 276 272 272 270 267 264 264 263 261 260 253 251 252 245 245
315 302 290 284 281 277 277 278 277 271 269 266 264 260 261 262 260 258 252 255 253 250
313 311 300 290 287 283 277 273 271 271 269 268 265 264 258 259 261 258 254 251 254 254
311 310 305 300 296 292 288 282 276 273 269 267 263 264 262 260 257 258 258 255 260 258
314 312 308 303 301 300 297 292 284 277 272 271 267 265 265 264 260 261 262 264 261 259
319 317 315 309 304 302 302 297 291 283 276 273 269 267 267 266 264 263 262 264 264 262
325 322 320 316 312 309 305 300 294 289 284 275 272 270 268 268 267 267 266 268 269 264
327 325 322 319 317 313 309 305 301 294 290 272 265 266 267 267 268 268 272 274 271 271
329 327 324 321 319 316 314 312 310 305 303 289 270 266 266 268 267 270 276 277 275 276
Wind_Speed_850mb
56 67 78 85 91 100 103 102 103 103 105 105 107 114 122 123 122 126 130 132 128 130
43 54 70 80 86 94 101 106 105 107 107 109 110 111 112 122 117 116 117 123 132 135
48 48 57 66 75 86 94 101 104 107 111 108 110 110 112 117 121 126 125 122 117 123
48 53 54 59 70 79 86 97 104 106 109 112 112 115 113 116 118 120 128 124 121 121
58 54 57 64 73 76 81 87 98 104 108 114 121 120 118 114 117 117 122 131 126 122
58 63 65 68 69 72 78 85 90 97 108 112 117 121 125 122 115 120 127 119 130 130
60 57 65 72 77 78 76 80 81 89 97 108 111 114 119 122 124 119 127 126 123 131
67 65 61 65 73 81 86 89 89 89 96 102 109 116 116 120 125 118 117 125 123 131
68 67 67 67 70 75 81 85 88 94 93 99 107 113 114 111 113 118 121 122 123 134
71 71 72 74 74 74 77 80 82 84 86 92 97 104 109 108 108 116 114 124 126 132
71 75 75 74 74 75 74 76 80 82 83 84 91 92 97 101 101 106 115 110 124 127
68 72 76 78 76 76 76 75 76 78 78 72 77 79 86 86 90 96 104 105 118 135
67 69 71 73 74 75 72 75 72 73 68 66 72 72 76 80 82 87 87 91 101 118
65 66 67 69 70 70 69 70 68 68 62 57 59 65 69 72 73 80 86 97 106 108
Wind_Direction_850mb
271 271 271 272 273 270 271 272 273 272 270 264 257 256 253 250 249 249 249 247 244 246
279 268 268 272 275 275 274 271 271 272 270 268 263 253 254 249 244 243 244 245 246 246
287 276 275 271 272 273 275 274 271 269 269 269 266 264 253 250 249 246 245 243 242 242
289 284 279 272 273 273 276 275 271 269 268 267 268 267 262 257 250 247 246 245 242 241
290 285 282 278 277 274 275 278 278 274 267 265 265 265 264 260 251 247 247 247 243 244
299 287 282 279 279 280 280 276 272 272 270 267 264 264 263 261 260 253 251 252 245 245
315 302 290 284 281 277 277 278 277 271 269 266 264 260 261 262 260 258 252 255 253 250
313 311 300 290 287 283 277 273 271 271 269 268 265 264 258 259 261 258 254 251 254 254
311 310 305 300 296 292 288 282 276 273 269 267 263 264 262 260 257 258 258 255 260 258
314 312 308 303 301 300 297 292 284 277 272 271 267 265 265 264 260 261 262 264 261 259
319 317 315 309 304 302 302 297 291 283 276 273 269 267 267 266 264 263 262 264 264 262
325 322 320 316 312 309 305 300 294 289 284 275 272 270 268 268 267 267 266 268 269 264
327 325 322 319 317 313 309 305 301 294 290 272 265 266 267 267 268 268 272 274 271 271
329 327 324 321 319 316 314 312 310 305 303 289 270 266 266 268 267 270 276 277 275 276